Погода в Степановке

Россия / Оренбургская область     52°17′13″N   54°30′20″E
темп.,
°C
ветер,
м/с
пор.,
м/с
влажн.,
%
обл.,
%
осадки,
мм/ч
давл.,
гПа
погр.,
м
15 мая, сб
сб1523:00+20ю12411 0.0 102411
02:00+19ююв22415 0.0 102411
05:00+17ююв224310 0.0 102411
08:00+21ююв23435 0.0 1025103
11:00+26ю34310 0.0 1024611
14:00+29ююз33230 0.0 10242020
17:00+29ю23230 0.0 10232447
20:00+26ююв11340 0.0 102211
16 мая, вс
вс1623:00+21юв22360 0.0 102211
02:00+19юв33400 0.0 102217
05:00+18ююв23425 0.0 102315
08:00+21юв36462 0.0 1023165
11:00+27ююв56325 0.0 1022523
14:00+29ю442537 0.0 10223370
17:00+30юз25228 0.0 10213489
20:00+22ююв4947100 0.1 1021167
17 мая, пн
пн1723:00+20ююз22505 0.1 102113
02:00+19ююв11495 0.0 102111
05:00+18вюв22514 0.0 102111
08:00+21ююв12475 0.0 1022116
11:00+26ююз343686 0.0 1022741
14:00+28юз232620 0.0 10211326
17:00+29юз23225 0.0 10203127
20:00+26с12335 0.0 102011
18 мая, вт
вт1823:00+22ссв11335 0.0 102011
02:00+19в35585 0.0 102065
05:00+18юв334910 0.0 102018
08:00+22юв124595 0.0 102085
11:00+27юв32345 0.0 1019636
14:00+30юв21215 0.0 10183191
17:00+30ююв122113 0.0 10173304
20:00+27юз003245 0.0 101711
19 мая, ср
ср1923:00+22св343958 0.0 101764
02:00+20всв355356 0.0 101769
05:00+18всв47625 0.0 1017114
08:00+22в46546 0.0 1017211
11:00+26вюв664074 0.0 1017809
14:00+27вюв673770 0.0 10171384
17:00+29вюв683242 0.0 10162804
20:00+25ю484975 0.0 1016218